Location: Baix
(44.7118°N, 4.7648°E)
Time: 01:50:39
(UTC+00:00)

Cosmos 2360 Rocket - Pass Details

Date: 07 August 2020
Orbit: 834 x 845 km, 71.0° (Epoch: 25 September)

Event Time Altitude Azimuth Distance (km) Brightness Sun altitude
Rises 00:27:55 0° 323° (NW) 3,413 5.9 -28.2°
Reaches altitude 10° 00:30:46 10° 311° (NW) 2,472 4.9 -28.1°
Enters shadow 00:33:49 22° 281° (W) 1,758 3.8 -28.0°
